Location: Unspecified
(0.0000°N, 0.0000°E)
Time: 22:24:06
(UTC+01:00)

Milstar 3 - Visible Passes

Search period start: 24 November 2014 00:00
Search period end: 04 December 2014 00:00
Orbit: 1102 x 5144 km, 28.2° (Epoch: 29 October)

Date Brightness Start Highest point End Pass type
(mag) Time Alt. Az. Time Alt. Az. Time Alt. Az.
24 Nov 6.6 02:06:15 29° NNE 02:06:15 29° NNE 02:20:45 10° NE visible
24 Nov 6.3 04:39:49 24° NW 04:57:02 37° N 05:16:58 10° ENE visible
24 Nov 4.8 18:51:38 10° SW 19:00:24 42° SE 19:16:17 10° E visible
24 Nov 4.9 21:33:57 10° WSW 21:47:41 74° NNW 21:51:42 64° NNE visible
25 Nov 6.4 00:22:20 10° W 01:08:14 17° NE 01:13:35 10° NE visible
25 Nov 6.3 03:41:48 33° NNW 03:48:20 35° N 04:11:45 10° ENE visible
25 Nov 5.8 06:19:47 10° NW 06:48:07 53° NNE 07:03:21 10° E visible
25 Nov 4.6 20:32:22 10° WSW 20:43:52 88° SSE 20:53:48 40° ENE visible
25 Nov 5.8 23:18:15 10° W 23:27:22 36° WNW 23:27:22 36° WNW visible
26 Nov 6.4 02:43:47 34° NNE 02:43:47 34° NNE 03:05:23 10° ENE visible
26 Nov 6.1 05:17:20 17° NW 05:41:57 45° NNE 06:00:10 10° E visible
26 Nov 4.4 19:31:17 10° SW 19:41:00 66° SE 19:55:54 18° ENE visible
26 Nov 5.3 22:15:13 10° W 22:29:28 55° NNW 22:29:28 55° NNW visible
27 Nov 6.7 01:45:46 25° NE 01:45:46 25° NE 01:58:00 10° NE visible
27 Nov 6.3 04:19:20 29° NNW 04:34:24 40° NNE 04:55:54 10° ENE visible
27 Nov 4.8 21:13:01 10° WSW 21:25:29 67° NNW 21:31:35 51° NNE visible
28 Nov 6.3 00:01:18 10° WNW 00:47:46 13° NE 00:49:59 10° NE visible
28 Nov 6.3 03:21:20 36° N 03:25:36 37° N 03:50:19 10° ENE visible
28 Nov 5.8 05:55:20 10° NW 06:25:39 58° NNE 06:42:23 10° E visible
28 Nov 4.4 20:11:26 10° WSW 20:21:55 84° NNW 20:33:43 30° NE visible
28 Nov 5.7 22:57:23 10° W 23:07:17 37° NW 23:07:17 37° NW visible
29 Nov 6.5 02:23:21 32° NNE 02:23:21 32° NNE 02:43:19 10° ENE visible
29 Nov 6.1 04:56:55 23° NW 05:19:15 49° NNE 05:39:06 10° E visible
29 Nov 4.2 19:10:20 10° SW 19:19:16 73° SSE 19:35:50 12° ENE visible
29 Nov 5.3 21:54:25 10° W 22:08:00 49° NNW 22:09:24 49° N visible
30 Nov 6.7 01:25:22 22° NE 01:25:22 22° NE 01:35:07 10° ENE visible
30 Nov 6.2 03:58:56 34° NNW 04:11:32 43° NNE 04:34:38 10° E visible
30 Nov 4.8 20:52:13 10° WSW 21:03:34 59° NNW 21:11:32 40° NNE visible
30 Nov 6.2 23:40:25 10° WNW 23:45:06 21° WNW 23:45:06 21° WNW visible
01 Dec 6.3 03:00:59 38° N 03:02:42 38° NNE 03:28:42 10° ENE visible
01 Dec 5.8 05:34:33 15° NW 06:02:53 64° NNE 06:21:15 10° ESE visible
01 Dec 4.3 19:50:36 10° WSW 20:00:12 75° NNW 20:13:39 22° NE visible
01 Dec 5.7 22:36:40 10° WNW 22:47:13 36° NW 22:47:13 36° NW visible
02 Dec 6.5 02:03:01 31° NNE 02:03:01 31° NNE 02:21:07 10° ENE visible
02 Dec 6.1 04:36:36 29° NW 04:56:13 53° NNE 05:17:50 10° E visible
02 Dec 5.3 21:33:46 10° W 21:46:06 44° NNW 21:49:21 41° N visible
03 Dec 6.6 01:05:05 18° NE 01:05:05 18° NE 01:12:08 10° ENE visible
03 Dec 6.2 03:38:39 40° NNW 03:48:24 46° NNE 04:13:10 10° E visible
03 Dec 5.6 06:13:54 10° WNW 06:45:30 83° NNE 07:02:29 10° ESE visible
03 Dec 4.8 20:31:33 10° W 20:41:52 52° NNW 20:51:27 30° NE visible
03 Dec 6.1 23:19:41 10° WNW 23:25:02 22° NW 23:25:02 22° NW visible
